EWG658 EDDK-LGKO

Flight info

Callsign EWG658
Flight time 2h 56m
Altitude 35000
Route KUMIK1B KUMIK L603 TESGA DCT ESATI DCT DETEV DCT DINKU DCT BESNI DCT LATLO DCT OBEDI DCT BERTA DCT TEBLI DCT TIVNU DCT MEDUX/N0438F370 UM867 KOGAT DCT ERANA UL737 TSL UN130 MES UN139 LURUS L995 KOPAR
Aircraft A320/M-SDE3FGHIRWY/LB1

Departure

Time 2026-04-25 15:51
Airport Cologne Bonn Airport (EDDK)

Arrival

Time 2026-04-25 18:47
Airport Kos International Airport "Ippokratis" (LGKO)
Time Latitude Longitude Altitude Speed Heading
2026-04-25 14:58 50.87766 7.12417 232 ft 0 kts 288°
2026-04-25 15:39 50.87763 7.12428 233 ft 4 kts 288°
2026-04-25 15:39 50.87755 7.12468 235 ft 3 kts 288°
2026-04-25 15:40 50.87749 7.12502 233 ft 4 kts 270°
2026-04-25 15:40 50.87751 7.12527 234 ft 4 kts 237°
2026-04-25 15:40 50.87779 7.12556 234 ft 3 kts 197°
2026-04-25 15:40 50.87783 7.12558 234 ft 0 kts 198°
2026-04-25 15:42 50.87762 7.12571 235 ft 5 kts 141°
2026-04-25 15:43 50.87759 7.12575 234 ft 0 kts 138°
2026-04-25 15:43 50.87747 7.12626 232 ft 7 kts 100°
2026-04-25 15:43 50.87741 7.12708 232 ft 7 kts 99°
2026-04-25 15:44 50.87718 7.12769 233 ft 6 kts 132°
2026-04-25 15:44 50.87685 7.12820 232 ft 9 kts 136°
2026-04-25 15:44 50.87629 7.12901 232 ft 11 kts 137°
2026-04-25 15:44 50.87574 7.12981 232 ft 10 kts 137°
2026-04-25 15:45 50.87523 7.13056 232 ft 10 kts 137°
2026-04-25 15:45 50.87457 7.13151 232 ft 17 kts 137°
2026-04-25 15:45 50.87346 7.13309 232 ft 24 kts 138°
2026-04-25 15:45 50.87262 7.13433 234 ft 23 kts 137°
2026-04-25 15:46 50.87122 7.13635 239 ft 18 kts 138°
2026-04-25 15:46 50.87039 7.13755 242 ft 15 kts 137°
2026-04-25 15:46 50.86972 7.13853 245 ft 11 kts 137°
2026-04-25 15:46 50.86928 7.13917 249 ft 8 kts 137°
2026-04-25 15:47 50.86894 7.13965 253 ft 6 kts 138°
2026-04-25 15:47 50.86840 7.14043 255 ft 16 kts 138°
2026-04-25 15:47 50.86750 7.14143 255 ft 15 kts 154°
2026-04-25 15:47 50.86675 7.14219 260 ft 11 kts 137°
2026-04-25 15:48 50.86629 7.14287 261 ft 10 kts 137°
2026-04-25 15:48 50.86546 7.14409 263 ft 23 kts 137°
2026-04-25 15:48 50.86413 7.14605 271 ft 29 kts 137°
2026-04-25 15:48 50.86274 7.14804 279 ft 24 kts 137°
2026-04-25 15:49 50.86163 7.14964 285 ft 19 kts 137°
2026-04-25 15:49 50.86074 7.15095 288 ft 16 kts 133°
2026-04-25 15:49 50.86055 7.15240 292 ft 13 kts 73°
2026-04-25 15:49 50.86111 7.15346 293 ft 15 kts 19°
2026-04-25 15:50 50.86223 7.15336 288 ft 18 kts 349°
2026-04-25 15:50 50.86355 7.15310 285 ft 21 kts
2026-04-25 15:50 50.86487 7.15172 280 ft 32 kts 317°
2026-04-25 15:50 50.86838 7.14660 264 ft 102 kts 317°
2026-04-25 15:51 50.87506 7.13697 262 ft 153 kts 318°
2026-04-25 15:51 50.88029 7.12948 691 ft 151 kts 317°
2026-04-25 15:51 50.89219 7.11744 1611 ft 160 kts 346°
2026-04-25 15:51 50.90408 7.11945 1853 ft 190 kts 22°
2026-04-25 15:52 50.91645 7.12912 2118 ft 213 kts 22°
2026-04-25 15:52 50.93015 7.14109 2548 ft 234 kts 33°
2026-04-25 15:52 50.94189 7.16012 3089 ft 255 kts 56°
2026-04-25 15:52 50.95013 7.18576 3795 ft 265 kts 61°
2026-04-25 15:53 50.95827 7.21237 4611 ft 271 kts 61°
2026-04-25 15:53 50.96656 7.23946 5439 ft 275 kts 60°
2026-04-25 15:53 50.97500 7.26698 6259 ft 279 kts 60°
2026-04-25 15:53 50.98358 7.29489 7055 ft 283 kts 60°
2026-04-25 15:54 50.99227 7.32309 7842 ft 286 kts 60°
2026-04-25 15:54 51.00107 7.35152 8637 ft 289 kts 60°
2026-04-25 15:54 51.00990 7.38040 9478 ft 292 kts 63°
2026-04-25 15:54 51.01608 7.41160 10239 ft 302 kts 77°
2026-04-25 15:55 51.01687 7.44592 10590 ft 324 kts 97°
2026-04-25 15:55 51.01065 7.48090 10889 ft 345 kts 108°
2026-04-25 15:55 51.00267 7.51775 11250 ft 359 kts 107°
2026-04-25 15:55 50.99494 7.55586 11891 ft 365 kts 106°
2026-04-25 15:56 50.98727 7.59453 12555 ft 370 kts 106°
2026-04-25 15:56 50.97954 7.63375 13221 ft 374 kts 106°
2026-04-25 15:56 50.97171 7.67335 13888 ft 379 kts 106°
2026-04-25 15:56 50.96375 7.71346 14476 ft 383 kts 106°
2026-04-25 15:57 50.95567 7.75402 15065 ft 387 kts 106°
2026-04-25 15:57 50.94746 7.79489 15654 ft 391 kts 108°
2026-04-25 15:57 50.93625 7.83444 16234 ft 396 kts 120°
2026-04-25 15:57 50.92139 7.87149 16833 ft 400 kts 123°
2026-04-25 15:58 50.90591 7.90820 17402 ft 403 kts 123°
2026-04-25 15:58 50.89024 7.94545 17980 ft 407 kts 123°
2026-04-25 15:58 50.87447 7.98298 18530 ft 411 kts 123°
2026-04-25 15:58 50.85860 8.02077 19029 ft 414 kts 123°
2026-04-25 15:59 50.84287 8.05842 19513 ft 417 kts 123°
2026-04-25 15:59 50.82670 8.09665 20012 ft 420 kts 123°
2026-04-25 15:59 50.81047 8.13529 20481 ft 423 kts 123°
2026-04-25 15:59 50.79419 8.17418 20972 ft 426 kts 123°
2026-04-25 16:00 50.77767 8.21324 21434 ft 429 kts 124°
2026-04-25 16:00 50.77204 8.22647 21587 ft 430 kts 124°
2026-04-25 16:00 50.74417 8.29196 22334 ft 435 kts 123°
2026-04-25 16:00 50.72734 8.33177 22790 ft 437 kts 123°
2026-04-25 16:01 50.70962 8.37083 23239 ft 440 kts 130°
2026-04-25 16:01 50.68858 8.40604 23654 ft 442 kts 140°
2026-04-25 16:01 50.66378 8.43481 24023 ft 443 kts 151°
2026-04-25 16:01 50.63670 8.45808 24355 ft 445 kts 154°
2026-04-25 16:02 50.60920 8.48082 24716 ft 448 kts 154°
2026-04-25 16:02 50.58160 8.50393 25068 ft 451 kts 154°
2026-04-25 16:02 50.55386 8.52728 25408 ft 453 kts 153°
2026-04-25 16:02 50.52602 8.55074 25802 ft 455 kts 153°
2026-04-25 16:03 50.49802 8.57425 26148 ft 457 kts 153°
2026-04-25 16:03 50.46996 8.59781 26479 ft 460 kts 153°
2026-04-25 16:03 50.44278 8.62492 26821 ft 464 kts 143°
2026-04-25 16:03 50.41866 8.65766 27152 ft 467 kts 136°
2026-04-25 16:04 50.39525 8.69327 27476 ft 470 kts 136°
2026-04-25 16:04 50.37144 8.72939 27808 ft 472 kts 136°
2026-04-25 16:04 50.34802 8.76490 28131 ft 475 kts 136°
2026-04-25 16:04 50.32418 8.80091 28458 ft 477 kts 136°
2026-04-25 16:05 50.30801 8.82520 28639 ft 479 kts 136°
2026-04-25 16:05 50.27595 8.87309 29085 ft 481 kts 136°
2026-04-25 16:05 50.22737 8.94584 29669 ft 486 kts 136°
2026-04-25 16:06 50.20288 8.98223 29950 ft 488 kts 136°
2026-04-25 16:06 50.17822 9.01905 30212 ft 490 kts 136°
2026-04-25 16:06 50.15353 9.05584 30450 ft 492 kts 136°
2026-04-25 16:06 50.12882 9.09261 30794 ft 491 kts 136°
2026-04-25 16:07 50.10437 9.12881 31146 ft 490 kts 137°
2026-04-25 16:07 50.09600 9.14114 31266 ft 490 kts 137°
2026-04-25 16:07 50.05505 9.20162 31835 ft 488 kts 136°
2026-04-25 16:07 50.03047 9.23810 32183 ft 487 kts 136°
2026-04-25 16:08 50.00595 9.27434 32554 ft 486 kts 136°
2026-04-25 16:08 49.98149 9.31048 32910 ft 485 kts 136°
2026-04-25 16:08 49.95703 9.34651 33201 ft 484 kts 137°
2026-04-25 16:08 49.93253 9.38243 33471 ft 484 kts 137°
2026-04-25 16:09 49.90812 9.41816 33740 ft 483 kts 137°
2026-04-25 16:09 49.88370 9.45401 33997 ft 483 kts 137°
2026-04-25 16:09 49.85931 9.48970 34131 ft 482 kts 137°
2026-04-25 16:09 49.83497 9.52538 34254 ft 481 kts 137°
2026-04-25 16:10 49.81060 9.56089 34374 ft 481 kts 137°
2026-04-25 16:10 49.78619 9.59629 34485 ft 480 kts 137°
2026-04-25 16:10 49.76185 9.63166 34616 ft 480 kts 137°
2026-04-25 16:10 49.73754 9.66694 34719 ft 479 kts 137°
2026-04-25 16:11 49.71323 9.70212 34837 ft 479 kts 137°
2026-04-25 16:11 49.68921 9.73683 34955 ft 477 kts 137°
2026-04-25 16:11 49.66502 9.77185 35020 ft 476 kts 137°
2026-04-25 16:12 49.61643 9.84193 35078 ft 474 kts 137°
2026-04-25 16:12 49.56855 9.91068 35081 ft 474 kts 137°
2026-04-25 16:13 49.52030 9.97962 35079 ft 473 kts 137°
2026-04-25 16:13 49.47222 10.04846 35085 ft 472 kts 137°
2026-04-25 16:14 49.42409 10.11702 35084 ft 472 kts 137°
2026-04-25 16:14 49.37591 10.18548 35082 ft 472 kts 137°
2026-04-25 16:15 49.32767 10.25379 35090 ft 472 kts 137°
2026-04-25 16:15 49.27939 10.32195 35087 ft 472 kts 137°
2026-04-25 16:16 49.23114 10.38999 35104 ft 471 kts 137°
2026-04-25 16:16 49.18426 10.46008 35118 ft 471 kts 136°
2026-04-25 16:17 49.13723 10.52993 35131 ft 471 kts 136°
2026-04-25 16:17 49.09060 10.59923 35130 ft 471 kts 136°
2026-04-25 16:18 49.04353 10.66869 35132 ft 470 kts 136°
2026-04-25 16:18 48.99645 10.73777 35122 ft 470 kts 136°
2026-04-25 16:19 48.94948 10.80696 35105 ft 469 kts 136°
2026-04-25 16:19 48.90249 10.87596 35093 ft 469 kts 136°
2026-04-25 16:20 48.83183 10.97890 35067 ft 469 kts 136°
2026-04-25 16:21 48.76914 11.07002 35052 ft 469 kts 136°
2026-04-25 16:21 48.72200 11.13837 35057 ft 468 kts 136°
2026-04-25 16:22 48.67497 11.20643 35061 ft 468 kts 136°
2026-04-25 16:22 48.62859 11.27533 35056 ft 467 kts 131°
2026-04-25 16:23 48.58537 11.34854 35070 ft 467 kts 131°
2026-04-25 16:23 48.54162 11.42113 35059 ft 467 kts 132°
2026-04-25 16:24 48.49783 11.49372 35039 ft 468 kts 133°
2026-04-25 16:24 48.45402 11.56623 35048 ft 467 kts 133°
2026-04-25 16:25 48.41013 11.63841 35053 ft 467 kts 133°
2026-04-25 16:25 48.36652 11.71011 35054 ft 467 kts 134°
2026-04-25 16:26 48.32255 11.78202 35060 ft 467 kts 134°
2026-04-25 16:26 48.27857 11.85381 35061 ft 467 kts 134°
2026-04-25 16:27 48.23465 11.92553 35062 ft 467 kts 134°
2026-04-25 16:27 48.19057 11.99705 35062 ft 467 kts 134°
2026-04-25 16:28 48.14644 12.06851 35061 ft 467 kts 135°
2026-04-25 16:28 48.10235 12.13981 35058 ft 467 kts 135°
2026-04-25 16:29 48.05816 12.21098 35055 ft 467 kts 135°
2026-04-25 16:29 48.01389 12.28208 35054 ft 467 kts 135°
2026-04-25 16:30 47.97714 12.34099 35038 ft 467 kts 135°
2026-04-25 16:30 47.92547 12.42380 35054 ft 466 kts 135°
2026-04-25 16:31 47.88124 12.49410 35049 ft 465 kts 135°
2026-04-25 16:31 47.83713 12.56452 35053 ft 465 kts 135°
2026-04-25 16:32 47.79299 12.63466 35051 ft 464 kts 136°
2026-04-25 16:32 47.74871 12.70456 35055 ft 464 kts 135°
2026-04-25 16:33 47.70436 12.77435 35054 ft 464 kts 135°
2026-04-25 16:33 47.65947 12.84307 35055 ft 463 kts 137°
2026-04-25 16:34 47.61385 12.91031 35055 ft 463 kts 137°
2026-04-25 16:34 47.56821 12.97771 35050 ft 462 kts 137°
2026-04-25 16:35 47.52286 13.04439 35045 ft 463 kts 137°
2026-04-25 16:35 47.47721 13.11159 35036 ft 463 kts 139°
2026-04-25 16:36 47.43149 13.17870 35033 ft 463 kts 139°
2026-04-25 16:36 47.38564 13.24548 35042 ft 463 kts 139°
2026-04-25 16:37 47.33975 13.31244 35051 ft 463 kts 139°
2026-04-25 16:37 47.29442 13.38002 35042 ft 464 kts 138°
2026-04-25 16:38 47.24951 13.44801 35032 ft 464 kts 138°
2026-04-25 16:38 47.20432 13.51602 35007 ft 465 kts 138°
2026-04-25 16:39 47.15903 13.58383 35006 ft 465 kts 139°
2026-04-25 16:39 47.11372 13.65169 35008 ft 465 kts 139°
2026-04-25 16:40 47.06838 13.71929 35006 ft 465 kts 139°
2026-04-25 16:40 47.02288 13.78684 34992 ft 466 kts 139°
2026-04-25 16:41 46.97733 13.85449 34995 ft 466 kts 139°
2026-04-25 16:41 46.90887 13.95581 34978 ft 467 kts 139°
2026-04-25 16:42 46.86312 14.02319 34961 ft 467 kts 139°
2026-04-25 16:42 46.81766 14.09016 34941 ft 468 kts 139°
2026-04-25 16:43 46.77174 14.15748 34931 ft 468 kts 139°
2026-04-25 16:43 46.72579 14.22484 34931 ft 468 kts 139°
2026-04-25 16:44 46.67976 14.29193 34918 ft 468 kts 139°
2026-04-25 16:44 46.63372 14.35894 34925 ft 468 kts 139°
2026-04-25 16:45 46.58763 14.42582 34927 ft 468 kts 139°
2026-04-25 16:45 46.54153 14.49277 34935 ft 469 kts 139°
2026-04-25 16:46 46.49529 14.55953 34942 ft 469 kts 139°
2026-04-25 16:46 46.46457 14.60384 34945 ft 469 kts 139°
2026-04-25 16:47 46.40630 14.69881 34945 ft 472 kts 134°
2026-04-25 16:47 46.36387 14.77133 34956 ft 472 kts 134°
2026-04-25 16:48 46.32141 14.84303 34961 ft 471 kts 134°
2026-04-25 16:48 46.27890 14.91518 34955 ft 471 kts 134°
2026-04-25 16:49 46.23613 14.98707 34945 ft 471 kts 134°
2026-04-25 16:49 46.19340 15.05884 34946 ft 472 kts 134°
2026-04-25 16:50 46.15777 15.11851 34940 ft 472 kts 134°
2026-04-25 16:50 46.10777 15.20241 34945 ft 472 kts 134°
2026-04-25 16:51 46.06479 15.27398 34939 ft 472 kts 134°
2026-04-25 16:51 46.03629 15.32121 34939 ft 471 kts 134°
2026-04-25 16:52 45.97919 15.41608 34938 ft 471 kts 134°
2026-04-25 16:52 45.93629 15.48722 34936 ft 471 kts 134°
2026-04-25 16:53 45.87184 15.59360 34936 ft 470 kts 134°
2026-04-25 16:54 45.82878 15.66432 34959 ft 470 kts 134°
2026-04-25 16:54 45.78578 15.73480 34943 ft 469 kts 134°
2026-04-25 16:55 45.74284 15.80516 34954 ft 469 kts 134°
2026-04-25 16:55 45.69976 15.87542 34962 ft 469 kts 134°
2026-04-25 16:56 45.65697 15.94504 34958 ft 469 kts 134°
2026-04-25 16:56 45.61388 16.01512 34958 ft 469 kts 134°
2026-04-25 16:57 45.57070 16.08503 34948 ft 469 kts 134°
2026-04-25 16:57 45.52750 16.15487 34955 ft 469 kts 134°
2026-04-25 16:58 45.48423 16.22462 34953 ft 470 kts 135°
2026-04-25 16:58 45.44075 16.29421 34947 ft 470 kts 134°
2026-04-25 16:59 45.39733 16.36397 34948 ft 471 kts 134°
2026-04-25 16:59 45.35386 16.43352 34948 ft 471 kts 135°
2026-04-25 17:00 45.31031 16.50310 34953 ft 470 kts 134°
2026-04-25 17:00 45.26668 16.57240 34953 ft 471 kts 135°
2026-04-25 17:01 45.22310 16.64170 34963 ft 471 kts 134°
2026-04-25 17:01 45.17958 16.71116 34981 ft 471 kts 134°
2026-04-25 17:02 45.13667 16.78140 34965 ft 471 kts 134°
2026-04-25 17:02 45.09357 16.85133 34972 ft 472 kts 134°
2026-04-25 17:03 45.05044 16.92123 34975 ft 471 kts 134°
2026-04-25 17:03 45.00724 16.99096 34984 ft 471 kts 134°
2026-04-25 17:04 44.96381 17.06024 34977 ft 470 kts 136°
2026-04-25 17:04 44.91769 17.12583 34975 ft 470 kts 138°
2026-04-25 17:05 44.87138 17.19078 34975 ft 470 kts 137°
2026-04-25 17:05 44.80216 17.28786 34979 ft 469 kts 137°
2026-04-25 17:06 44.75587 17.35263 34989 ft 469 kts 137°
2026-04-25 17:06 44.70955 17.41726 34990 ft 469 kts 138°
2026-04-25 17:07 44.67066 17.47128 34990 ft 469 kts 137°
2026-04-25 17:07 44.62459 17.53545 34998 ft 469 kts 138°
2026-04-25 17:08 44.57789 17.60008 34992 ft 469 kts 137°
2026-04-25 17:08 44.53171 17.66381 35002 ft 468 kts 137°
2026-04-25 17:09 44.48535 17.72784 35001 ft 468 kts 137°
2026-04-25 17:09 44.43890 17.79166 35001 ft 468 kts 137°
2026-04-25 17:10 44.39250 17.85546 34996 ft 467 kts 137°
2026-04-25 17:10 44.34604 17.91910 34985 ft 467 kts 137°
2026-04-25 17:11 44.29948 17.98260 34996 ft 467 kts 137°
2026-04-25 17:11 44.25296 18.04596 34999 ft 467 kts 137°
2026-04-25 17:12 44.20678 18.10885 35000 ft 467 kts 137°
2026-04-25 17:12 44.16021 18.17197 35002 ft 467 kts 137°
2026-04-25 17:13 44.12116 18.22484 34998 ft 467 kts 137°
2026-04-25 17:13 44.06695 18.29806 34996 ft 467 kts 137°
2026-04-25 17:14 44.02040 18.36085 35003 ft 466 kts 137°
2026-04-25 17:14 43.97383 18.42335 35003 ft 465 kts 137°
2026-04-25 17:15 43.92730 18.48579 35006 ft 464 kts 137°
2026-04-25 17:15 43.88087 18.54788 35006 ft 464 kts 137°
2026-04-25 17:16 43.83442 18.60990 34998 ft 463 kts 137°
2026-04-25 17:16 43.78823 18.67134 35018 ft 462 kts 137°
2026-04-25 17:17 43.74182 18.73294 35007 ft 462 kts 137°
2026-04-25 17:17 43.69549 18.79452 35003 ft 462 kts 137°
2026-04-25 17:18 43.64900 18.85586 35002 ft 461 kts 137°
2026-04-25 17:18 43.60265 18.91717 35004 ft 461 kts 137°
2026-04-25 17:19 43.55628 18.97829 34997 ft 461 kts 136°
2026-04-25 17:19 43.50987 19.03913 35002 ft 460 kts 136°
2026-04-25 17:20 43.46352 19.09986 34999 ft 460 kts 137°
2026-04-25 17:20 43.41712 19.16058 35006 ft 460 kts 136°
2026-04-25 17:21 43.37108 19.22078 35000 ft 460 kts 136°
2026-04-25 17:21 43.32470 19.28129 34995 ft 459 kts 136°
2026-04-25 17:22 43.28576 19.33175 35000 ft 459 kts 136°
2026-04-25 17:22 43.23185 19.40161 35003 ft 458 kts 136°
2026-04-25 17:23 43.18542 19.46167 35008 ft 458 kts 136°
2026-04-25 17:23 43.13907 19.52165 35001 ft 458 kts 136°
2026-04-25 17:24 43.09263 19.58146 34997 ft 458 kts 136°
2026-04-25 17:24 43.04655 19.64088 34995 ft 458 kts 136°
2026-04-25 17:25 42.99991 19.70032 34994 ft 458 kts 136°
2026-04-25 17:25 42.95332 19.75992 34994 ft 458 kts 136°
2026-04-25 17:26 42.90677 19.81940 34997 ft 458 kts 136°
2026-04-25 17:26 42.86010 19.87877 35114 ft 460 kts 136°
2026-04-25 17:27 42.83668 19.90856 35360 ft 461 kts 136°
2026-04-25 17:27 42.81326 19.93843 35613 ft 461 kts 136°
2026-04-25 17:27 42.78981 19.96826 35862 ft 461 kts 136°
2026-04-25 17:27 42.78191 19.97831 35947 ft 461 kts 136°
2026-04-25 17:28 42.74350 20.02857 36366 ft 460 kts 130°
2026-04-25 17:28 42.72300 20.06189 36623 ft 459 kts 128°
2026-04-25 17:28 42.70291 20.09558 36884 ft 458 kts 128°
2026-04-25 17:28 42.68269 20.12902 37022 ft 458 kts 128°
2026-04-25 17:29 42.64224 20.19566 37026 ft 456 kts 128°
2026-04-25 17:29 42.60193 20.26214 37023 ft 456 kts 128°
2026-04-25 17:30 42.56158 20.32831 37019 ft 455 kts 128°
2026-04-25 17:30 42.52126 20.39426 37005 ft 454 kts 128°
2026-04-25 17:31 42.48087 20.46014 37001 ft 454 kts 128°
2026-04-25 17:31 42.44086 20.52556 37013 ft 454 kts 128°
2026-04-25 17:32 42.40041 20.59120 37010 ft 454 kts 128°
2026-04-25 17:32 42.36001 20.65677 37019 ft 454 kts 128°
2026-04-25 17:33 42.31954 20.72229 37015 ft 454 kts 128°
2026-04-25 17:33 42.27914 20.78772 37042 ft 453 kts 128°
2026-04-25 17:34 42.23864 20.85292 37032 ft 453 kts 128°
2026-04-25 17:34 42.19847 20.91768 37035 ft 452 kts 128°
2026-04-25 17:35 42.15797 20.98259 37032 ft 452 kts 128°
2026-04-25 17:35 42.11746 21.04733 37021 ft 452 kts 130°
2026-04-25 17:36 42.07242 21.10666 37026 ft 453 kts 135°
2026-04-25 17:36 42.02647 21.16480 37025 ft 453 kts 135°
2026-04-25 17:37 41.98056 21.22297 37023 ft 453 kts 135°
2026-04-25 17:37 41.93478 21.28099 37020 ft 452 kts 135°
2026-04-25 17:38 41.90406 21.31971 37020 ft 452 kts 135°
2026-04-25 17:38 41.84309 21.39657 37017 ft 452 kts 135°
2026-04-25 17:39 41.79747 21.45388 37008 ft 452 kts 135°
2026-04-25 17:39 41.75160 21.51158 37012 ft 452 kts 134°
2026-04-25 17:40 41.70569 21.56907 37009 ft 451 kts 134°
2026-04-25 17:40 41.65984 21.62637 37008 ft 451 kts 134°
2026-04-25 17:41 41.61395 21.68350 37014 ft 451 kts 135°
2026-04-25 17:41 41.56804 21.74061 37011 ft 451 kts 135°
2026-04-25 17:42 41.52213 21.79764 37020 ft 451 kts 135°
2026-04-25 17:42 41.47622 21.85461 37018 ft 450 kts 134°
2026-04-25 17:43 41.43033 21.91144 37018 ft 450 kts 134°
2026-04-25 17:43 41.38444 21.96812 37015 ft 450 kts 134°
2026-04-25 17:44 41.33875 22.02423 37021 ft 450 kts 134°
2026-04-25 17:44 41.29284 22.08080 37021 ft 450 kts 134°
2026-04-25 17:45 41.26210 22.11851 37020 ft 450 kts 134°
2026-04-25 17:45 41.20081 22.19351 37036 ft 449 kts 134°
2026-04-25 17:46 41.15465 22.24937 37032 ft 449 kts 137°
2026-04-25 17:46 41.10597 22.30130 37021 ft 449 kts 138°
2026-04-25 17:47 41.05745 22.35346 37012 ft 449 kts 138°
2026-04-25 17:47 41.00920 22.40527 37010 ft 449 kts 138°
2026-04-25 17:48 40.93631 22.48311 37018 ft 449 kts 138°
2026-04-25 17:49 40.88781 22.53494 37018 ft 448 kts 138°
2026-04-25 17:49 40.83933 22.58663 37013 ft 448 kts 138°
2026-04-25 17:50 40.79086 22.63824 37006 ft 447 kts 138°
2026-04-25 17:50 40.74238 22.68970 37004 ft 447 kts 138°
2026-04-25 17:51 40.69388 22.74105 37014 ft 447 kts 138°
2026-04-25 17:51 40.64548 22.79227 37018 ft 446 kts 138°
2026-04-25 17:52 40.59706 22.84345 37015 ft 446 kts 138°
2026-04-25 17:52 40.54862 22.89450 37008 ft 446 kts 138°
2026-04-25 17:53 40.50015 22.94550 37008 ft 446 kts 138°
2026-04-25 17:53 40.45233 22.99740 37007 ft 444 kts 131°
2026-04-25 17:54 40.40984 23.05591 37007 ft 443 kts 130°
2026-04-25 17:54 40.36756 23.11453 37018 ft 443 kts 130°
2026-04-25 17:55 40.32534 23.17271 37017 ft 443 kts 130°
2026-04-25 17:55 40.28288 23.23119 37021 ft 443 kts 130°
2026-04-25 17:56 40.24037 23.28961 37031 ft 443 kts 130°
2026-04-25 17:56 40.20504 23.33814 37030 ft 443 kts 130°
2026-04-25 17:57 40.15537 23.40622 37038 ft 442 kts 130°
2026-04-25 17:57 40.12004 23.45453 37048 ft 442 kts 130°
2026-04-25 17:58 40.07760 23.51232 37044 ft 441 kts 130°
2026-04-25 17:58 40.03517 23.57004 37042 ft 440 kts 130°
2026-04-25 17:59 39.99277 23.62770 37038 ft 440 kts 130°
2026-04-25 17:59 39.95059 23.68507 37036 ft 440 kts 130°
2026-04-25 18:00 39.90809 23.74264 37039 ft 440 kts 130°
2026-04-25 18:00 39.86557 23.80009 37051 ft 441 kts 130°
2026-04-25 18:01 39.82321 23.85720 37041 ft 441 kts 131°
2026-04-25 18:01 39.78056 23.91458 37039 ft 441 kts 131°
2026-04-25 18:02 39.73782 23.97199 37037 ft 441 kts 131°
2026-04-25 18:02 39.69514 24.02921 37036 ft 441 kts 131°
2026-04-25 18:03 39.65236 24.08638 37037 ft 441 kts 131°
2026-04-25 18:03 39.60963 24.14361 37032 ft 442 kts 131°
2026-04-25 18:04 39.56679 24.20072 37036 ft 442 kts 131°
2026-04-25 18:04 39.52388 24.25777 37034 ft 442 kts 131°
2026-04-25 18:05 39.48094 24.31479 37025 ft 442 kts 131°
2026-04-25 18:05 39.43808 24.37183 37031 ft 442 kts 131°
2026-04-25 18:06 39.39539 24.42833 37029 ft 442 kts 131°
2026-04-25 18:06 39.35233 24.48509 37029 ft 442 kts 131°
2026-04-25 18:07 39.30953 24.54212 37033 ft 442 kts 131°
2026-04-25 18:07 39.26687 24.59928 37035 ft 442 kts 131°
2026-04-25 18:08 39.22409 24.65628 37029 ft 442 kts 131°
2026-04-25 18:08 39.18135 24.71340 37032 ft 442 kts 131°
2026-04-25 18:09 39.13852 24.77027 37025 ft 442 kts 131°
2026-04-25 18:09 39.09563 24.82703 37020 ft 442 kts 132°
2026-04-25 18:10 39.05254 24.88281 37018 ft 442 kts 132°
2026-04-25 18:10 39.00924 24.93901 37020 ft 442 kts 132°
2026-04-25 18:11 38.96590 24.99510 37034 ft 442 kts 132°
2026-04-25 18:11 38.92263 25.05113 37029 ft 441 kts 132°
2026-04-25 18:12 38.87930 25.10696 37031 ft 441 kts 133°
2026-04-25 18:12 38.83596 25.16266 37017 ft 441 kts 132°
2026-04-25 18:13 38.79265 25.21832 37020 ft 441 kts 132°
2026-04-25 18:13 38.74941 25.27400 37012 ft 441 kts 133°
2026-04-25 18:14 38.68436 25.35715 37024 ft 441 kts 133°
2026-04-25 18:14 38.64092 25.41249 37017 ft 440 kts 133°
2026-04-25 18:15 38.59751 25.46785 37015 ft 440 kts 133°
2026-04-25 18:15 38.55431 25.52272 37013 ft 440 kts 133°
2026-04-25 18:16 38.51096 25.57795 37006 ft 440 kts 133°
2026-04-25 18:17 38.44564 25.66048 37003 ft 440 kts 134°
2026-04-25 18:17 38.40215 25.71549 37004 ft 440 kts 134°
2026-04-25 18:18 38.35858 25.77059 36988 ft 441 kts 134°
2026-04-25 18:18 38.31495 25.82568 36981 ft 441 kts 134°
2026-04-25 18:18 38.29319 25.85320 36765 ft 442 kts 134°
2026-04-25 18:19 38.27106 25.88025 36498 ft 441 kts 138°
2026-04-25 18:19 38.24683 25.90349 36245 ft 442 kts 148°
2026-04-25 18:19 38.21931 25.92105 35991 ft 444 kts 158°
2026-04-25 18:19 38.19019 25.93426 35744 ft 444 kts 159°
2026-04-25 18:20 38.16093 25.94724 35493 ft 444 kts 159°
2026-04-25 18:20 38.13181 25.96038 35266 ft 444 kts 159°
2026-04-25 18:20 38.10279 25.97361 35018 ft 442 kts 159°
2026-04-25 18:20 38.07383 25.98679 34775 ft 442 kts 159°
2026-04-25 18:21 38.04494 25.99994 34536 ft 439 kts 159°
2026-04-25 18:21 38.01629 26.01297 34043 ft 436 kts 159°
2026-04-25 18:21 37.98780 26.02589 33463 ft 433 kts 159°
2026-04-25 18:21 37.95961 26.03867 32976 ft 428 kts 159°
2026-04-25 18:22 37.93171 26.05125 32465 ft 424 kts 158°
2026-04-25 18:22 37.92268 26.05535 32305 ft 422 kts 158°
2026-04-25 18:22 37.87705 26.07613 31473 ft 416 kts 158°
2026-04-25 18:22 37.84986 26.08833 30969 ft 413 kts 158°
2026-04-25 18:23 37.82298 26.10051 30477 ft 410 kts 157°
2026-04-25 18:23 37.79619 26.11265 29973 ft 407 kts 157°
2026-04-25 18:23 37.76966 26.12461 29448 ft 402 kts 157°
2026-04-25 18:23 37.74346 26.13638 28974 ft 397 kts 157°
2026-04-25 18:24 37.71759 26.14807 28511 ft 392 kts 157°
2026-04-25 18:24 37.69201 26.15961 28048 ft 388 kts 157°
2026-04-25 18:24 37.66669 26.17102 27592 ft 384 kts 157°
2026-04-25 18:24 37.64168 26.18230 27146 ft 381 kts 157°
2026-04-25 18:25 37.61683 26.19344 26704 ft 377 kts 157°
2026-04-25 18:25 37.59218 26.20444 26263 ft 374 kts 157°
2026-04-25 18:25 37.56775 26.21539 25830 ft 371 kts 156°
2026-04-25 18:25 37.54350 26.22632 25370 ft 369 kts 157°
2026-04-25 18:26 37.51938 26.23711 24944 ft 367 kts 156°
2026-04-25 18:26 37.49541 26.24793 24496 ft 365 kts 156°
2026-04-25 18:26 37.47155 26.25867 24057 ft 363 kts 156°
2026-04-25 18:26 37.44775 26.26926 23611 ft 362 kts 157°
2026-04-25 18:27 37.42401 26.27974 23109 ft 361 kts 156°
2026-04-25 18:27 37.40046 26.29025 22673 ft 358 kts 156°
2026-04-25 18:27 37.37710 26.30068 22229 ft 355 kts 156°
2026-04-25 18:27 37.35392 26.31107 21801 ft 353 kts 156°
2026-04-25 18:28 37.33087 26.32135 21374 ft 351 kts 156°
2026-04-25 18:28 37.30792 26.33150 20948 ft 349 kts 156°
2026-04-25 18:28 37.28513 26.34158 20519 ft 347 kts 156°
2026-04-25 18:29 37.23972 26.36178 19668 ft 344 kts 157°
2026-04-25 18:29 37.21749 26.37160 19262 ft 342 kts 156°
2026-04-25 18:30 37.15069 26.40138 18009 ft 338 kts 157°
2026-04-25 18:30 37.12856 26.41113 17593 ft 335 kts 157°
2026-04-25 18:30 37.10672 26.42078 17205 ft 331 kts 157°
2026-04-25 18:30 37.08512 26.43039 16822 ft 328 kts 157°
2026-04-25 18:31 37.06368 26.43986 16443 ft 325 kts 157°
2026-04-25 18:31 37.04242 26.44926 16072 ft 323 kts 157°
2026-04-25 18:31 37.02131 26.45861 15699 ft 321 kts 158°
2026-04-25 18:31 37.00033 26.46785 15334 ft 319 kts 158°
2026-04-25 18:32 36.97943 26.47708 14968 ft 317 kts 157°
2026-04-25 18:32 36.95898 26.48609 14614 ft 315 kts 158°
2026-04-25 18:32 36.93837 26.49516 14256 ft 313 kts 158°
2026-04-25 18:32 36.91805 26.50470 13896 ft 311 kts 152°
2026-04-25 18:33 36.89987 26.51883 13478 ft 306 kts 139°
2026-04-25 18:33 36.88509 26.53768 13122 ft 302 kts 127°
2026-04-25 18:33 36.87432 26.55999 12747 ft 299 kts 115°
2026-04-25 18:33 36.86614 26.58371 12398 ft 296 kts 114°
2026-04-25 18:34 36.85816 26.60723 12039 ft 293 kts 114°
2026-04-25 18:34 36.85022 26.63051 11659 ft 290 kts 114°
2026-04-25 18:34 36.84231 26.65353 11305 ft 287 kts 115°
2026-04-25 18:34 36.83441 26.67630 10948 ft 284 kts 117°
2026-04-25 18:35 36.82408 26.69700 10597 ft 280 kts 129°
2026-04-25 18:35 36.81123 26.71504 10256 ft 277 kts 132°
2026-04-25 18:35 36.79838 26.73261 10016 ft 270 kts 131°
2026-04-25 18:35 36.78604 26.74958 9860 ft 260 kts 131°
2026-04-25 18:36 36.77397 26.76620 9517 ft 257 kts 131°
2026-04-25 18:36 36.76204 26.78261 9185 ft 254 kts 131°
2026-04-25 18:36 36.75021 26.79882 8858 ft 251 kts 131°
2026-04-25 18:36 36.73853 26.81487 8534 ft 248 kts 131°
2026-04-25 18:37 36.72705 26.83070 8216 ft 245 kts 131°
2026-04-25 18:37 36.71572 26.84628 7890 ft 242 kts 131°
2026-04-25 18:37 36.70447 26.86172 7562 ft 239 kts 131°
2026-04-25 18:37 36.69401 26.87762 7231 ft 235 kts 122°
2026-04-25 18:38 36.68640 26.89526 6898 ft 233 kts 116°
2026-04-25 18:38 36.67925 26.91336 6564 ft 232 kts 116°
2026-04-25 18:38 36.67201 26.93153 6218 ft 231 kts 116°
2026-04-25 18:38 36.66499 26.94918 5866 ft 230 kts 116°
2026-04-25 18:39 36.65791 26.96704 5523 ft 229 kts 115°
2026-04-25 18:39 36.65083 26.98484 5182 ft 228 kts 115°
2026-04-25 18:39 36.64377 27.00262 4904 ft 229 kts 115°
2026-04-25 18:39 36.63664 27.02037 4569 ft 229 kts 115°
2026-04-25 18:40 36.62948 27.03803 4222 ft 228 kts 115°
2026-04-25 18:40 36.62246 27.05539 4031 ft 220 kts 115°
2026-04-25 18:40 36.61565 27.07207 3881 ft 215 kts 115°
2026-04-25 18:40 36.60889 27.08857 3676 ft 213 kts 114°
2026-04-25 18:41 36.60232 27.10507 3530 ft 212 kts 114°
2026-04-25 18:41 36.59632 27.12163 3528 ft 204 kts 105°
2026-04-25 18:41 36.59472 27.13850 3520 ft 195 kts 84°
2026-04-25 18:41 36.59850 27.15453 3501 ft 193 kts 68°
2026-04-25 18:42 36.60380 27.16981 3486 ft 190 kts 67°
2026-04-25 18:42 36.60553 27.17464 3495 ft 185 kts 68°
2026-04-25 18:42 36.61414 27.19863 3492 ft 179 kts 65°
2026-04-25 18:42 36.62242 27.21017 3488 ft 185 kts 32°
2026-04-25 18:43 36.63506 27.21297 3496 ft 187 kts 353°
2026-04-25 18:43 36.64677 27.20667 3295 ft 188 kts 331°
2026-04-25 18:43 36.65767 27.19778 3041 ft 187 kts 329°
2026-04-25 18:43 36.66865 27.18907 2750 ft 188 kts 332°
2026-04-25 18:44 36.67982 27.18055 2455 ft 188 kts 331°
2026-04-25 18:44 36.69076 27.17222 2338 ft 178 kts 331°
2026-04-25 18:44 36.70069 27.16434 2231 ft 160 kts 332°
2026-04-25 18:44 36.70993 27.15713 2086 ft 153 kts 333°
2026-04-25 18:45 36.71884 27.15017 1950 ft 149 kts 333°
2026-04-25 18:45 36.72763 27.14342 1749 ft 147 kts 333°
2026-04-25 18:45 36.73628 27.13667 1525 ft 146 kts 333°
2026-04-25 18:45 36.74490 27.13002 1365 ft 145 kts 333°
2026-04-25 18:46 36.75347 27.12344 1185 ft 145 kts 331°
2026-04-25 18:46 36.76187 27.11665 997 ft 143 kts 331°
2026-04-25 18:46 36.77028 27.11014 816 ft 142 kts 330°
2026-04-25 18:46 36.77583 27.10584 684 ft 142 kts 330°
2026-04-25 18:47 36.78413 27.09926 468 ft 140 kts 330°
2026-04-25 18:47 36.79405 27.09157 416 ft 96 kts 328°
2026-04-25 18:47 36.79748 27.08888 411 ft 80 kts 328°
2026-04-25 18:47 36.80255 27.08491 409 ft 33 kts 328°
2026-04-25 18:48 36.80331 27.08463 414 ft 12 kts 20°
2026-04-25 18:48 36.80345 27.08558 416 ft 12 kts 103°
2026-04-25 18:48 36.80327 27.08647 421 ft 9 kts 107°
2026-04-25 18:48 36.80293 27.08704 412 ft 8 kts 149°
2026-04-25 18:49 36.80244 27.08740 411 ft 8 kts 148°
2026-04-25 18:49 36.80198 27.08776 414 ft 8 kts 148°
2026-04-25 18:49 36.80146 27.08817 415 ft 9 kts 148°
2026-04-25 18:49 36.80094 27.08858 413 ft 6 kts 148°
2026-04-25 18:50 36.80082 27.08893 417 ft 4 kts 72°
2026-04-25 18:50 36.80093 27.08917 411 ft 3 kts 59°
2026-04-25 18:50 36.80101 27.08932 415 ft 1 kts 58°
2026-04-25 18:50 36.80103 27.08936 416 ft 0 kts 58°
2026-04-25 18:51 36.80108 27.08946 413 ft 1 kts 58°
2026-04-25 18:51 36.80111 27.08952 414 ft 0 kts 58°